This is the latest recevied weather packets stored in our database for station/object IU0KRR-10. If no packets are shown the sender has not sent any weather packets the latest 10 day(s).
| Time | Temp. | Humidity | Pressure | Rain* | Wind** | Luminosity | Snow |
|---|---|---|---|---|---|---|---|
| 1787838465 | 30° C | 40% | 879.3 hPa | - | - | - | - |
| 1787837458 | 30° C | 39% | 879.3 hPa | - | - | - | - |
| 1787836634 | 30° C | 36% | 879.1 hPa | - | - | - | - |
| 1787835984 | 30° C | 35% | 879.1 hPa | - | - | - | - |
| 1787834792 | 30.56° C | 31% | 879 hPa | - | - | - | - |
| 1787834235 | 30.56° C | 30% | 879 hPa | - | - | - | - |
| 1787832951 | 31.11° C | 27% | 878.8 hPa | - | - | - | - |
| 1787832033 | 31.11° C | 26% | 878.8 hPa | - | - | - | - |
| 1787830287 | 30° C | 27% | 879.1 hPa | - | - | - | - |
| 1787829188 | 30° C | 25% | 879.1 hPa | - | - | - | - |
| 1787828273 | 30° C | 31% | 879 hPa | - | - | - | - |
| 1787827352 | 29.44° C | 28% | 878.9 hPa | - | - | - | - |
| 1787826705 | 29.44° C | 29% | 879.1 hPa | - | - | - | - |
| 1787825786 | 28.89° C | 29% | 879.1 hPa | - | - | - | - |
| 1787824594 | 28.89° C | 29% | 879.2 hPa | - | - | - | - |
| 1787823764 | 28.33° C | 30% | 879.2 hPa | - | - | - | - |
| 1787822754 | 28.33° C | 30% | 879.3 hPa | - | - | - | - |
| 1787821836 | 27.78° C | 31% | 879.2 hPa | - | - | - | - |
| 1787820914 | 26.67° C | 33% | 879.1 hPa | - | - | - | - |
| 1787819995 | 26.11° C | 36% | 879.1 hPa | - | - | - | - |
| 1787819077 | 26.11° C | 37% | 879 hPa | - | - | - | - |
| 1787818158 | 25.56° C | 41% | 879.1 hPa | - | - | - | - |
| 1787817238 | 25° C | 43% | 879.1 hPa | - | - | - | - |
| 1787816319 | 25° C | 44% | 878.9 hPa | - | - | - | - |
| 1787815490 | 24.44° C | 46% | 879 hPa | - | - | - | - |
* Rain since midnight (hover to see other rain measurements)
** Current wind speed in m/s (hover to see current wind gust speed)